Zurück zum Katalog

FENGYUN 1C DEB

AktivSSO
NORAD 37429·DEBRIS·🇨🇳 China

Gestartet May 10, 1999 von Taiyuan Satellite Launch Center

Loading…

Nächste Überflüge (nächste 24 Stunden)

TLE

AlterndSource: Space-Track

Epoche: Sep 10, 2026, 04:19 UTC

1 37429U 99025EGX 26253.18047653  .00000531  00000-0  30967-3 0  9999
2 37429  98.6619 238.0093 0102575 308.8038  50.4007 14.10016285669118

Verfolge FENGYUN 1C DEB in Echtzeit mit AllMySat

Download on the App Store